DW5321 Paradera AW current weather conditions

sailwx.info

Wind from 086 at 8 knots gusting 18

Air temperature 28.3° C
Dewpoint 25.2° C

Last reported at 2014-Oct-02 11:43 UTC.
Time now 2014-Oct-02 12:40 UTC

Location: N 12°33' W 070°00'.
View on Google Maps.

See reports from other nearby stations

  
Tides and Currents Weather Stations Pressure Air Temp Water Temp Dewpoint Dewpoint Depression Visibility Wind Speed Wind Dir Waves Ship Positions
date/time (UTC)wind fromknots sea level pressurealtimeterstation pressurevisibilityair tempwater tempwave heightnotes
2014-Oct-02 11:43 086 8 gusting 18 28.3
2014-Oct-02 11:28 101 10 gusting 15 28.3
2014-Oct-02 11:13 057 10 gusting 13 28.3
2014-Oct-02 10:58 094 6 gusting 13 27.8
2014-Oct-02 10:43 081 8 gusting 17 27.8
2014-Oct-02 10:28 090 9 gusting 13 27.8
2014-Oct-02 10:13 094 7 gusting 13 27.8
2014-Oct-02 09:58 105 6 gusting 13 27.8
2014-Oct-02 09:43 101 6 gusting 13 27.8
2014-Oct-02 09:28 129 9 gusting 17 27.8
2014-Oct-02 09:13 071 8 gusting 13 27.8
2014-Oct-02 08:58 095 9 gusting 13 27.8
2014-Oct-02 08:43 093 7 gusting 13 27.8
2014-Oct-02 08:28 094 8 gusting 13 27.8
2014-Oct-02 08:13 093 6 gusting 12 27.8
2014-Oct-02 07:58 072 8 gusting 13 27.8
2014-Oct-02 07:43 074 4 gusting 14 27.8
2014-Oct-02 07:28 077 6 gusting 12 27.8
2014-Oct-02 07:13 099 7 gusting 14 27.8
2014-Oct-02 06:58 127 8 gusting 13 27.8
2014-Oct-02 06:43 117 7 gusting 14 27.8
2014-Oct-02 06:28 114 7 gusting 12 28.3
2014-Oct-02 06:13 106 9 gusting 15 27.8
2014-Oct-02 05:57 089 8 gusting 18 27.8
2014-Oct-02 04:42 111 10 gusting 16 28.3
2014-Oct-02 04:27 082 6 gusting 17 28.3
2014-Oct-02 04:12 096 7 gusting 13 28.3
2014-Oct-02 03:57 099 11 gusting 18 28.3
2014-Oct-02 03:42 103 6 gusting 16 28.3
2014-Oct-02 03:27 058 6 gusting 13 28.3
2014-Oct-02 03:12 090 6 gusting 13 28.3
2014-Oct-02 02:57 055 6 gusting 15 28.3
2014-Oct-02 02:42 134 9 gusting 17 28.3
2014-Oct-02 02:27 082 9 gusting 17 28.3
2014-Oct-02 02:12 091 7 gusting 13 28.3
2014-Oct-02 01:57 082 10 gusting 17 28.3
2014-Oct-02 01:42 094 7 gusting 14 28.3
2014-Oct-02 01:27 067 6 gusting 13 28.3
2014-Oct-02 01:12 098 7 gusting 18 28.3
2014-Oct-02 00:57 068 10 gusting 16 28.3
2014-Oct-02 00:42 103 7 gusting 12 28.3
2014-Oct-02 00:27 073 6 gusting 16 28.3
2014-Oct-02 00:12 107 7 gusting 13 28.3
2014-Oct-01 23:57 082 9 gusting 15 28.3
2014-Oct-01 23:42 079 6 gusting 16 28.3
2014-Oct-01 23:27 072 8 gusting 14 28.3
2014-Oct-01 23:13 083 11 gusting 17 28.3
2014-Oct-01 22:57 090 8 gusting 15 28.3
2014-Oct-01 22:42 090 7 gusting 15 28.9
2014-Oct-01 22:27 077 9 gusting 17 28.9
2014-Oct-01 22:12 077 8 gusting 13 28.9
2014-Oct-01 21:57 074 10 gusting 17 28.9
2014-Oct-01 21:42 088 10 gusting 17 29.4
2014-Oct-01 21:27 101 8 gusting 17 29.4
2014-Oct-01 21:12 064 9 gusting 15 29.4
2014-Oct-01 20:57 084 9 gusting 18 30.0
2014-Oct-01 20:42 065 11 gusting 17 30.0
2014-Oct-01 20:27 075 8 gusting 13 30.6
2014-Oct-01 20:12 065 7 gusting 19 30.6
2014-Oct-01 19:57 096 10 gusting 17 30.6
2014-Oct-01 19:42 085 11 gusting 17 30.6
2014-Oct-01 19:27 098 11 gusting 17 30.6
2014-Oct-01 19:12 087 9 gusting 15 31.1
2014-Oct-01 18:57 101 9 gusting 15 31.7
2014-Oct-01 18:42 074 8 gusting 21 31.7
2014-Oct-01 18:27 048 9 gusting 15 31.1
2014-Oct-01 18:12 084 9 gusting 17 31.1
2014-Oct-01 17:57 060 8 gusting 20 31.1
2014-Oct-01 17:42 107 12 gusting 19 31.1
2014-Oct-01 17:27 073 11 gusting 19 31.7
2014-Oct-01 17:12 096 10 gusting 21 31.1
2014-Oct-01 16:57 080 10 gusting 23 31.1
2014-Oct-01 16:42 079 11 gusting 21 31.7
2014-Oct-01 16:31 077 11 gusting 16 31.7
2014-Oct-01 16:12 092 9 gusting 15 31.7
2014-Oct-01 15:57 079 13 gusting 19 30.6
2014-Oct-01 15:42 115 9 gusting 15 31.1
2014-Oct-01 15:27 068 7 gusting 17 30.6
2014-Oct-01 15:12 053 11 gusting 16 30.6
2014-Oct-01 14:57 066 8 gusting 15 30.6
2014-Oct-01 14:42 108 10 gusting 17 30.6
2014-Oct-01 14:27 088 12 gusting 19 30.6
2014-Oct-01 14:12 044 10 gusting 21 30.6
2014-Oct-01 13:57 070 8 gusting 18 30.0
2014-Oct-01 13:42 107 13 gusting 18 30.0
2014-Oct-01 13:27 129 9 gusting 18 30.0
2014-Oct-01 13:12 101 10 gusting 17 29.4
2014-Oct-01 12:57 108 14 gusting 23 29.4
2014-Oct-01 12:42 090 13 gusting 16 29.4
2014-Oct-01 12:27 093 10 gusting 16 28.9
2014-Oct-01 12:12 091 10 gusting 15 28.9
2014-Oct-01 11:57 100 9 gusting 18 28.9
2014-Oct-01 11:42 129 6 gusting 11 28.3
2014-Oct-01 11:26 101 6 gusting 13 28.3
2014-Oct-01 11:11 105 8 gusting 13 27.8
2014-Oct-01 10:56 114 8 gusting 14 27.8
2014-Oct-01 10:41 108 7 gusting 14 27.8
2014-Oct-01 10:26 101 9 gusting 14 27.8
2014-Oct-01 10:11 081 8 gusting 15 27.8
2014-Oct-01 09:56 108 9 gusting 12 27.8
2014-Oct-01 09:41 111 6 gusting 16 27.8
2014-Oct-01 09:26 104 6 gusting 15 27.8
2014-Oct-01 09:11 112 10 gusting 13 27.8
2014-Oct-01 08:56 089 10 gusting 14 27.8
2014-Oct-01 08:41 089 11 gusting 17 27.8
2014-Oct-01 08:26 096 7 gusting 14 27.8
2014-Oct-01 08:11 063 8 gusting 16 27.8
2014-Oct-01 07:56 088 11 gusting 20 27.8
2014-Oct-01 07:41 111 13 gusting 19 27.8
2014-Oct-01 07:26 120 8 gusting 17 27.8
2014-Oct-01 07:11 101 9 gusting 16 27.8
2014-Oct-01 06:56 110 10 gusting 16 27.8
2014-Oct-01 06:41 108 9 gusting 13 27.8
2014-Oct-01 06:26 112 7 gusting 13 27.8
2014-Oct-01 06:11 094 6 gusting 15 27.8
2014-Oct-01 05:56 108 6 gusting 15 27.8
2014-Oct-01 05:41 117 7 gusting 17 27.8
2014-Oct-01 05:26 101 5 gusting 14 27.8
2014-Oct-01 05:11 108 6 gusting 15 27.8
2014-Oct-01 04:56 103 6 gusting 13 27.8
2014-Oct-01 04:41 108 10 gusting 16 27.8
2014-Oct-01 04:26 066 6 gusting 13 27.8
2014-Oct-01 04:11 103 6 gusting 14 28.3
2014-Oct-01 03:56 108 9 gusting 14 28.3
2014-Oct-01 03:41 060 8 gusting 14 28.3
2014-Oct-01 03:26 099 7 gusting 16 28.3
2014-Oct-01 03:11 105 7 gusting 12 28.3
2014-Oct-01 02:56 101 7 gusting 16 28.3
2014-Oct-01 02:41 103 10 gusting 13 28.3
2014-Oct-01 02:26 068 6 gusting 13 28.3
2014-Oct-01 02:11 105 7 gusting 17 28.3
2014-Oct-01 01:56 096 6 gusting 13 28.3
2014-Oct-01 01:41 066 9 gusting 16 28.3
2014-Oct-01 01:26 073 8 gusting 16 28.3
2014-Oct-01 01:11 051 9 gusting 16 28.3
2014-Oct-01 00:56 114 6 gusting 17 28.3
2014-Oct-01 00:41 077 11 gusting 16 28.3
2014-Oct-01 00:26 087 9 gusting 19 28.3
2014-Oct-01 00:11 077 10 gusting 17 28.3
2014-Sep-30 23:56 081 8 gusting 16 28.3
2014-Sep-30 23:42 089 13 gusting 20 28.3
2014-Sep-30 23:26 060 11 gusting 19 28.3
2014-Sep-30 23:11 111 11 gusting 17 28.3
2014-Sep-30 22:56 081 10 gusting 14 28.3
2014-Sep-30 22:41 080 10 gusting 15 28.9
2014-Sep-30 22:26 125 7 gusting 15 28.9
2014-Sep-30 22:11 077 9 gusting 16 28.9
2014-Sep-30 21:56 110 6 gusting 15 29.4
2014-Sep-30 21:40 071 7 gusting 15 29.4
2014-Sep-30 21:25 071 10 gusting 16 30.0
2014-Sep-30 21:10 124 10 gusting 19 30.0
2014-Sep-30 20:55 090 12 gusting 18 30.0
2014-Sep-30 20:40 096 10 gusting 16 30.6
2014-Sep-30 20:25 064 11 gusting 17 30.6
2014-Sep-30 20:10 127 9 gusting 15 30.6
2014-Sep-30 19:55 060 6 gusting 19 31.1
2014-Sep-30 19:40 107 10 gusting 16 31.1
2014-Sep-30 19:25 102 9 gusting 15 31.7
2014-Sep-30 19:10 110 8 gusting 18 31.7
2014-Sep-30 18:55 108 12 gusting 20 31.7
2014-Sep-30 18:40 072 9 gusting 22 31.7
2014-Sep-30 18:25 111 12 gusting 19 31.7
2014-Sep-30 18:10 089 11 gusting 22 31.7
2014-Sep-30 17:55 111 13 gusting 19 31.7
2014-Sep-30 17:40 103 11 gusting 22 31.7
2014-Sep-30 17:25 092 13 gusting 22 31.7
2014-Sep-30 17:10 098 9 gusting 19 31.7
2014-Sep-30 16:55 094 14 gusting 19 31.7
2014-Sep-30 16:40 108 13 gusting 18 31.7
2014-Sep-30 16:25 122 12 gusting 22 32.2
2014-Sep-30 16:10 111 13 gusting 21 31.7
2014-Sep-30 15:55 059 12 gusting 21 31.1
2014-Sep-30 15:41 094 10 gusting 23 31.7
2014-Sep-30 15:25 127 8 gusting 23 31.1
2014-Sep-30 15:10 120 13 gusting 21 31.1
2014-Sep-30 14:55 101 14 gusting 21 31.1
2014-Sep-30 14:40 110 13 gusting 21 30.6
2014-Sep-30 14:25 113 9 gusting 19 30.6
2014-Sep-30 14:10 098 10 gusting 19 30.0
2014-Sep-30 13:55 121 11 gusting 19 30.0
2014-Sep-30 13:40 111 10 gusting 19 30.0
2014-Sep-30 13:25 109 8 gusting 20 30.0
2014-Sep-30 13:10 101 13 gusting 19 29.4
2014-Sep-30 12:55 125 13 gusting 19 29.4
2014-Sep-30 12:40 110 13 gusting 19 28.9
2014-Sep-30 12:25 105 13 gusting 19 28.9
2014-Sep-30 12:10 117 10 gusting 15 28.9